| time (UTC) | temp C | wind direction | speed KPH | gust KPH | rain 1hr cm | rain 24hr cm | rain mn cm | humidity % | barometer mb |
| 20260504011232 | 12 | 218 | 1.6 | 4.8 | 0.00 | 0.00 | 0.00 | 52 | 1010.6 |
| 20260504010231 | 12 | 218 | 1.6 | 4.8 | 0.00 | 0.00 | 0.00 | 50 | 1010.6 |
| 20260504004232 | 12 | 236 | 3.2 | 6.4 | 0.00 | 0.00 | 0.00 | 47 | 1010.6 |
| 20260504003732 | 13 | 241 | 1.6 | 4.8 | 0.00 | 0.00 | 0.00 | 47 | 1010.6 |
| 20260504003231 | 13 | 242 | 1.6 | 4.8 | 0.00 | 0.00 | 0.00 | 48 | 1010.6 |
| 20260504002731 | 13 | 242 | 1.6 | 4.8 | 0.00 | 0.00 | 0.00 | 47 | 1010.6 |
| 20260504002230 | 13 | 240 | 3.2 | 6.4 | 0.00 | 0.00 | 0.00 | 46 | 1010.6 |
| 20260504001233 | 13 | 221 | 4.8 | 9.7 | 0.00 | 0.00 | 0.00 | 45 | 1010.7 |
| 20260504000733 | 13 | 224 | 4.8 | 11.3 | 0.00 | 0.00 | 0.00 | 45 | 1010.6 |
| 20260504000234 | 13 | 222 | 4.8 | 12.9 | 0.00 | 0.00 | 0.00 | 45 | 1010.5 |
| 20260503234730 | 13 | 232 | 6.4 | 17.7 | 0.00 | 0.00 | 0.00 | 45 | 1010.6 |
| 20260503234230 | 14 | 229 | 6.4 | 17.7 | 0.00 | 0.00 | 0.00 | 44 | 1010.7 |
| 20260503232732 | 14 | 225 | 6.4 | 16.1 | 0.00 | 0.00 | 0.00 | 43 | 1010.7 |
| 20260503232232 | 14 | 227 | 6.4 | 19.3 | 0.00 | 0.00 | 0.00 | 43 | 1010.7 |
| 20260503230730 | 14 | 227 | 6.4 | 14.5 | 0.00 | 0.00 | 0.00 | 43 | 1010.8 |
| 20260503230230 | 14 | 235 | 4.8 | 12.9 | 0.00 | 0.00 | 0.00 | 43 | 1010.8 |
| 20260503225233 | 14 | 228 | 4.8 | 12.9 | 0.00 | 0.00 | 0.00 | 42 | 1010.9 |
| 20260503224732 | 14 | 239 | 6.4 | 16.1 | 0.00 | 0.00 | 0.00 | 42 | 1010.9 |
| 20260503224232 | 14 | 237 | 6.4 | 17.7 | 0.00 | 0.00 | 0.00 | 42 | 1010.9 |
| 20260503222731 | 15 | 232 | 6.4 | 14.5 | 0.00 | 0.00 | 0.00 | 42 | 1011.0 |
| 20260503220733 | 15 | 237 | 6.4 | 20.9 | 0.00 | 0.00 | 0.00 | 40 | 1011.0 |
| 20260503220232 | 15 | 261 | 4.8 | 12.9 | 0.00 | 0.00 | 0.00 | 41 | 1011.1 |
| 20260503214730 | 15 | 241 | 4.8 | 17.7 | 0.00 | 0.00 | 0.00 | 40 | 1011.1 |
| 20260503214230 | 15 | 244 | 6.4 | 20.9 | 0.00 | 0.00 | 0.00 | 41 | 1011.1 |
| 20260503212232 | 15 | 233 | 6.4 | 19.3 | 0.00 | 0.00 | 0.00 | 41 | 1011.1 |
| 20260503210730 | 16 | 253 | 8.0 | 24.1 | 0.00 | 0.00 | 0.00 | 39 | 1011.0 |
| 20260503210230 | 16 | 255 | 6.4 | 17.7 | 0.00 | 0.00 | 0.00 | 40 | 1011.0 |
| 20260503205232 | 16 | 236 | 6.4 | 22.5 | 0.00 | 0.00 | 0.00 | 41 | 1011.1 |
| 20260503204732 | 16 | 256 | 6.4 | 24.1 | 0.00 | 0.00 | 0.00 | 39 | 1011.1 |
| 20260503204231 | 16 | 250 | 6.4 | 24.1 | 0.00 | 0.00 | 0.00 | 40 | 1011.1 |
| 20260503202730 | 16 | 243 | 6.4 | 16.1 | 0.00 | 0.00 | 0.00 | 40 | 1011.3 |
| 20260503202233 | 16 | 251 | 6.4 | 16.1 | 0.00 | 0.00 | 0.00 | 40 | 1011.3 |
| 20260503201232 | 16 | 235 | 6.4 | 14.5 | 0.00 | 0.00 | 0.00 | 39 | 1011.3 |
| 20260503200731 | 16 | 247 | 8.0 | 24.1 | 0.00 | 0.00 | 0.00 | 40 | 1011.6 |
| 20260503194733 | 16 | 244 | 8.0 | 22.5 | 0.00 | 0.00 | 0.00 | 38 | 1011.9 |
| 20260503192230 | 17 | 243 | 8.0 | 17.7 | 0.00 | 0.00 | 0.00 | 37 | 1012.3 |
| 20260503191233 | 17 | 240 | 8.0 | 19.3 | 0.00 | 0.00 | 0.00 | 36 | 1012.4 |
| 20260503190733 | 17 | 266 | 9.7 | 25.7 | 0.00 | 0.00 | 0.00 | 37 | 1012.4 |
| 20260503190231 | 17 | 287 | 9.7 | 30.6 | 0.00 | 0.00 | 0.00 | 36 | 1012.4 |
| 20260503185230 | 17 | 272 | 8.0 | 22.5 | 0.00 | 0.00 | 0.00 | 37 | 1012.6 |
| 20260503184428 | 17 | 278 | 8.0 | 24.1 | 0.00 | 0.00 | 0.00 | 38 | 1012.7 |
| 20260503184230 | 17 | 278 | 8.0 | 24.1 | 0.00 | 0.00 | 0.00 | 38 | 1012.7 |
| 20260503182733 | 16 | 278 | 8.0 | 25.7 | 0.00 | 0.00 | 0.00 | 43 | 1012.9 |
| 20260503182232 | 16 | 265 | 8.0 | 25.7 | 0.00 | 0.00 | 0.00 | 39 | 1013.0 |
| 20260503181231 | 16 | 249 | 8.0 | 24.1 | 0.00 | 0.00 | 0.00 | 40 | 1013.0 |
| 20260503180731 | 16 | 236 | 9.7 | 24.1 | 0.00 | 0.00 | 0.00 | 39 | 1012.9 |
| 20260503180230 | 16 | 228 | 9.7 | 22.5 | 0.00 | 0.00 | 0.00 | 39 | 1013.0 |
| 20260503175233 | 17 | 261 | 6.4 | 16.1 | 0.00 | 0.00 | 0.00 | 40 | 1013.1 |
| 20260503173231 | 17 | 271 | 6.4 | 19.3 | 0.00 | 0.00 | 0.00 | 42 | 1013.4 |
| 20260503172731 | 17 | 261 | 8.0 | 20.9 | 0.00 | 0.00 | 0.00 | 41 | 1013.6 |
| 20260503172230 | 17 | 239 | 8.0 | 20.9 | 0.00 | 0.00 | 0.00 | 38 | 1013.6 |
| 20260503171233 | 17 | 237 | 6.4 | 17.7 | 0.00 | 0.00 | 0.00 | 40 | 1013.7 |
| 20260503170732 | 17 | 269 | 8.0 | 25.7 | 0.00 | 0.00 | 0.00 | 40 | 1013.7 |
| 20260503170231 | 17 | 256 | 9.7 | 25.7 | 0.00 | 0.00 | 0.00 | 40 | 1013.8 |
| 20260503150733 | 12 | 226 | 4.8 | 24.1 | 0.00 | 0.00 | 0.00 | 50 | 1014.7 |
| 20260503150232 | 12 | 237 | 6.4 | 16.1 | 0.00 | 0.00 | 0.00 | 49 | 1014.8 |
| 20260503140230 | 8 | 230 | 4.8 | 12.9 | 0.00 | 0.00 | 0.00 | 57 | 1015.0 |
| 20260503130732 | 5 | 216 | 1.6 | 8.0 | 0.00 | 0.00 | 0.00 | 74 | 1015.4 |
| 20260503110232 | 0 | 0 | 0.0 | 0.0 | 0.00 | 0.00 | 0.00 | 87 | 1014.7 |
| 20260503100229 | 0 | 0 | 0.0 | 0.0 | 0.00 | 0.03 | 0.00 | 86 | 1014.3 |
| 20260503081230 | 1 | 0 | 0.0 | 0.0 | 0.00 | 0.13 | 0.00 | 84 | 1014.4 |
| 20260503070231 | 2 | 0 | 0.0 | 0.0 | 0.00 | 0.18 | 0.00 | 81 | 1014.5 |
| 20260503054229 | 3 | 0 | 0.0 | 0.0 | 0.00 | 0.36 | 0.00 | 78 | 1014.8 |
| 20260503053233 | 3 | 0 | 0.0 | 0.0 | 0.00 | 0.38 | 0.00 | 78 | 1014.7 |
| 20260503052232 | 3 | 0 | 0.0 | 0.0 | 0.00 | 0.43 | 0.00 | 78 | 1014.8 |
| 20260503051231 | 4 | 0 | 0.0 | 0.0 | 0.00 | 0.46 | 0.00 | 79 | 1014.8 |
| 20260503050229 | 4 | 0 | 0.0 | 0.0 | 0.00 | 0.51 | 0.00 | 79 | 1014.8 |
| 20260503045733 | 4 | 0 | 0.0 | 0.0 | 0.00 | 0.51 | 0.00 | 79 | 1014.9 |
| 20260503045232 | 4 | 0 | 0.0 | 0.0 | 0.00 | 0.51 | 0.00 | 79 | 1014.9 |
| 20260503044231 | 4 | 0 | 0.0 | 0.0 | 0.00 | 0.51 | 0.00 | 79 | 1014.9 |
| 20260503043230 | 4 | 0 | 0.0 | 0.0 | 0.00 | 0.51 | 0.00 | 80 | 1014.9 |
| 20260503042730 | 4 | 0 | 0.0 | 0.0 | 0.00 | 0.51 | 0.00 | 80 | 1014.9 |
| 20260503040732 | 4 | 257 | 0.0 | 3.2 | 0.00 | 0.51 | 0.00 | 80 | 1015.1 |
| 20260503035230 | 4 | 0 | 0.0 | 0.0 | 0.00 | 0.51 | 0.48 | 80 | 1015.1 |
| 20260503034229 | 4 | 0 | 0.0 | 0.0 | 0.00 | 0.51 | 0.48 | 80 | 1015.1 |
| 20260503033232 | 4 | 0 | 0.0 | 0.0 | 0.00 | 0.51 | 0.48 | 81 | 1015.1 |
| 20260503032732 | 4 | 0 | 0.0 | 0.0 | 0.00 | 0.51 | 0.48 | 81 | 1015.1 |
| 20260503032231 | 4 | 0 | 0.0 | 0.0 | 0.00 | 0.51 | 0.48 | 81 | 1015.2 |
| 20260503031230 | 4 | 0 | 0.0 | 0.0 | 0.00 | 0.51 | 0.48 | 81 | 1015.3 |
| 20260503030730 | 4 | 0 | 0.0 | 0.0 | 0.00 | 0.51 | 0.48 | 81 | 1015.3 |
| 20260503030229 | 4 | 0 | 0.0 | 0.0 | 0.00 | 0.51 | 0.48 | 81 | 1015.3 |
| 20260503025232 | 4 | 0 | 0.0 | 0.0 | 0.00 | 0.51 | 0.48 | 80 | 1015.4 |
| 20260503024732 | 4 | 0 | 0.0 | 0.0 | 0.00 | 0.51 | 0.48 | 80 | 1015.4 |
| 20260503024231 | 4 | 0 | 0.0 | 0.0 | 0.00 | 0.51 | 0.48 | 79 | 1015.4 |
| 20260503023230 | 4 | 0 | 0.0 | 0.0 | 0.00 | 0.51 | 0.48 | 79 | 1015.6 |
| 20260503022730 | 4 | 0 | 0.0 | 0.0 | 0.00 | 0.51 | 0.48 | 79 | 1015.6 |
| 20260503022230 | 4 | 0 | 0.0 | 0.0 | 0.00 | 0.51 | 0.48 | 78 | 1015.6 |
| 20260503020732 | 4 | 0 | 0.0 | 0.0 | 0.00 | 0.51 | 0.48 | 77 | 1015.5 |
| 20260503020232 | 4 | 0 | 0.0 | 0.0 | 0.00 | 0.51 | 0.48 | 77 | 1015.5 |
| 20260503015230 | 5 | 0 | 0.0 | 0.0 | 0.00 | 0.51 | 0.48 | 76 | 1015.5 |
| 20260503014730 | 5 | 0 | 0.0 | 0.0 | 0.00 | 0.51 | 0.48 | 76 | 1015.4 |
| 20260503014229 | 5 | 0 | 0.0 | 0.0 | 0.00 | 0.51 | 0.48 | 76 | 1015.5 |
| 20260503013233 | 5 | 0 | 0.0 | 0.0 | 0.00 | 0.51 | 0.48 | 74 | 1015.4 |
| 20260503012732 | 5 | 0 | 0.0 | 0.0 | 0.00 | 0.51 | 0.48 | 74 | 1015.4 |
| 20260503012231 | 5 | 0 | 0.0 | 0.0 | 0.00 | 0.51 | 0.48 | 73 | 1015.4 |